[[{"header":{"parameterUnit":"m.s-1","parameterCategory":2,"la1":30.2992,"la2":30.254,"lo1":-89.0895,"lo2":-89.0443,"dy":0.0025,"dx":0.0025,"nx":19,"ny":19,"refTime":"2026-03-19T09:00:00:Z","depth":"0","parameterNumber":2,"parameterNumberName":"U-component_of_CURRENTS"},"data":[0,0,0,0.3188,0.319,0.3249,0.3248,0.3245,0.3245,0,0,0,0,0,0,0,0,0,0,0,0.3136,0.3136,0.3187,0.319,0.3249,0.3248,0.3245,0.3245,0,0,0,0,0,0,0,0,0,0,0,0.3136,0.3136,0.3136,0.319,0.3249,0.3248,0.3245,0.3214,0,0,0,0,0,0,0,0,0,0,0.3164,0.3188,0.3136,0.3136,0.3191,0.3249,0.3248,0.3213,0.3216,0.3204,0,0.321,0,0.3252,0.3245,0.3245,0,0,0,0.3164,0.3187,0.3161,0.3136,0.3192,0.3249,0.3215,0.3215,0.3218,0.3207,0.3211,0.3212,0.3252,0.3245,0.3246,0.3306,0.3307,0,0,0.3161,0.3186,0.3159,0.3163,0.3202,0.3213,0.3217,0.3218,0.3242,0.3211,0.3213,0.3252,0.3246,0.3246,0.3306,0.3306,0,0,0,0.3169,0.3184,0.3161,0.3161,0.3192,0.3216,0.322,0.3242,0.3222,0.3214,0.3252,0.3246,0.3246,0.3305,0.3306,0.3246,0,0,0,0.3166,0.319,0.3159,0.318,0.3193,0.3245,0.3244,0.322,0.3224,0.3252,0.3246,0.3246,0.3304,0.3306,0.3246,0.3194,0,0,0,0.3134,0.319,0.3184,0.318,0.3217,0.3245,0.3227,0.3222,0.3248,0.3245,0.3246,0.3304,0.3305,0.3246,0.3196,0.3135,0,0,0,0.3172,0.3209,0.3185,0.3263,0.3216,0.3277,0.3228,0.3294,0.3305,0.3246,0.3304,0.3306,0.3246,0.3197,0.3137,0.3023,0.3005,0,0,0.3237,0.3218,0.3265,0.3246,0.3294,0.3267,0.3304,0.3298,0.3315,0.3292,0.3294,0.3246,0.3196,0.3136,0.311,0.3088,0,0,0,0.3301,0.3297,0.3325,0.3348,0.3381,0.332,0.3343,0.3321,0.3302,0.3332,0.3294,0.3265,0.3227,0.3165,0.315,0.2789,0.3313,0.3313,0.3312,0.3345,0.3351,0.3382,0.3358,0.3384,0.3371,0.3326,0.3289,0.333,0.3319,0.3252,0.3213,0.3151,0.3137,0.2769,0.3309,0.3308,0.3308,0.3308,0.3357,0.336,0.3338,0.335,0.3293,0.3291,0.3242,0.3237,0.3177,0.323,0.3197,0.3152,0.3115,0.2729,0.3305,0.3306,0.3306,0.3306,0.3307,0.3334,0.3334,0.3314,0.3285,0.3219,0.32,0.3105,0.3107,0.3113,0.3082,0.3025,0.3025,0.2649,0.3082,0.3082,0.3081,0.3081,0.3081,0.308,0.3325,0.3304,0.327,0.3222,0.3168,0.3097,0.3027,0.2975,0.293,0.2939,0.2939,0.2588,0.3144,0.311,0.3073,0.3074,0.3075,0.3076,0.3077,0.332,0.3315,0.3262,0.3204,0.3067,0.2931,0.2892,0.2753,0.2716,0.2663,0.2305,0.2852,0.2847,0.286,0.2821,0.2711,0.2711,0.2711,0.2711,0.3326,0.3322,0.3242,0.313,0.2987,0.2851,0.2614,0.2461,0.2192,0.1977,0.195,0.1928,0.1959,0.1901,0.1936,0.1878,0.1532,0.153,0.1528,0.3319,0.3307,0.3227,0.312,0.2935,0.2747,0.2457,0.2046,0.159,0.1445,0.1456,0.1506,0.1448,0.1526,0.1428,0.1506,0.1414,0,0]},{"header":{"parameterUnit":"m.s-1","parameterCategory":2,"la1":30.2992,"la2":30.254,"lo1":-89.0895,"lo2":-89.0443,"dy":0.0025,"dx":0.0025,"nx":19,"ny":19,"refTime":"2026-03-19T09:00:00:Z","depth":"0","parameterNumber":3,"parameterNumberName":"V-component_of_CURRENTS"},"data":[0,0,0,0.0116,0.0118,0.0243,0.0244,0.0382,0.0383,0,0,0,0,0,0,0,0,0,0,0,0.0069,0.007,0.0115,0.0118,0.0243,0.0244,0.0381,0.0383,0,0,0,0,0,0,0,0,0,0,0,0.0069,0.0069,0.007,0.0118,0.0243,0.0244,0.0381,0.0296,0,0,0,0,0,0,0,0,0,0,0.0178,0.0123,0.0069,0.007,0.0119,0.0243,0.0244,0.0292,0.0301,0.0313,0,0.0323,0,0.035,0.039,0.039,0,0,0,0.0133,0.0115,0.0157,0.007,0.012,0.0243,0.0191,0.0298,0.0308,0.0325,0.0325,0.0331,0.0352,0.0391,0.0391,0.0464,0.0464,0,0,0.0126,0.0088,0.015,0.0163,0.0139,0.0187,0.0195,0.0304,0.0303,0.0325,0.0334,0.0355,0.0391,0.0392,0.0464,0.0464,0,0,0,0.0096,0.0083,0.0123,0.0157,0.0178,0.019,0.0199,0.0299,0.0314,0.0336,0.0356,0.0392,0.0393,0.0464,0.0464,0.0437,0,0,0,0.0093,0.0065,0.012,0.0098,0.0176,0.024,0.0191,0.0307,0.032,0.0356,0.0392,0.0394,0.0464,0.0464,0.0438,0.0457,0,0,0,0.0066,0.0062,0.0074,0.0096,0.0145,0.0239,0.0262,0.0311,0.0332,0.039,0.0395,0.0464,0.0464,0.0438,0.0457,0.0611,0,0,0,0.0027,0.0032,0.0073,0.0073,0.0143,0.0176,0.0262,0.0294,0.0334,0.0392,0.0464,0.0464,0.0439,0.0458,0.0608,0.0689,0.0707,0,0,0.0012,0.0029,0.0027,0.0067,0.0075,0.0161,0.0193,0.0283,0.0344,0.0429,0.0432,0.0437,0.0458,0.061,0.0687,0.0705,0,0,0,0.0008,0.0002,0.001,0.0024,0.0066,0.0137,0.0209,0.0279,0.0384,0.0367,0.0444,0.0459,0.0557,0.0599,0.0613,0.0583,0.0464,0.0464,0.0464,-0.0045,-0.003,-0.0042,-0.0016,0.0015,0.0115,0.0204,0.0317,0.034,0.0392,0.044,0.0542,0.0581,0.0594,0.0558,0.0428,0.0428,0.0428,0.0428,-0.0094,-0.0102,-0.008,-0.0085,-0.0008,0.0034,0.0216,0.0286,0.048,0.0443,0.054,0.057,0.0609,0.0565,0.0426,0.0426,0.0427,0.0427,0.0427,-0.0136,-0.0136,-0.0142,-0.0128,-0.0068,0.003,0.0219,0.0337,0.0481,0.0565,0.0715,0.0716,0.0688,0.0636,0.0637,0.0638,0.0638,0.0639,0.0639,-0.0169,-0.0172,-0.0158,-0.0147,-0.01,0.0019,0.0247,0.0416,0.0647,0.0735,0.0738,0.0718,0.0609,0.0613,0.065,0.0648,0.0647,0.0646,0.0645,-0.0225,-0.018,-0.0161,-0.0123,0.0002,0.0183,0.0338,0.0677,0.0858,0.0994,0.0933,0.0873,0.0928,0.0916,0.0929,0.1047,0.1047,0.1047,0.1047,-0.0227,-0.0216,-0.0118,-0.0015,0.0129,0.0288,0.0626,0.0863,0.1054,0.1113,0.1077,0.0982,0.0968,0.1018,0.1004,0.1016,0.1154,0.1153,0.1153,-0.0245,-0.02,-0.0109,0.0021,0.0201,0.0442,0.0752,0.0977,0.1146,0.1149,0.102,0.1016,0.0859,0.0839,0.0898,0.088,0.0893,0,0]}],[{"header":{"parameterUnit":"m.s-1","parameterCategory":2,"la1":30.2992,"la2":30.254,"lo1":-89.0895,"lo2":-89.0443,"dy":0.0025,"dx":0.0025,"nx":19,"ny":19,"refTime":"2026-03-19T09:00:00:Z","depth":"2","parameterNumber":2,"parameterNumberName":"U-component_of_CURRENTS"},"data":[0,0,0,0.0518,0.0519,0.0557,0.0557,0.0592,0.0593,0,0,0,0,0,0,0,0,0,0,0,0.053,0.0531,0.0518,0.0519,0.0557,0.0557,0.0592,0.0593,0,0,0,0,0,0,0,0,0,0,0,0.0529,0.0531,0.0532,0.0519,0.0557,0.0557,0.0592,0.0564,0,0,0,0,0,0,0,0,0,0,0.0528,0.0495,0.053,0.0532,0.052,0.0557,0.0557,0.0563,0.0566,0.0575,0,0.0612,0,0.0598,0.0596,0.0596,0,0,0,0.0508,0.0492,0.0552,0.0533,0.052,0.0557,0.0537,0.0565,0.0568,0.0579,0.0613,0.0613,0.0599,0.0596,0.0596,0.0679,0.068,0,0,0.0506,0.048,0.055,0.0555,0.0571,0.0536,0.0538,0.0567,0.0558,0.0613,0.0614,0.0599,0.0596,0.0597,0.0679,0.0679,0,0,0,0.0508,0.0478,0.0536,0.0554,0.056,0.0537,0.054,0.0556,0.0591,0.0614,0.06,0.0597,0.0597,0.0678,0.0679,0.0764,0,0,0,0.0506,0.0481,0.0536,0.0512,0.056,0.0545,0.0528,0.059,0.0592,0.06,0.0597,0.0598,0.0677,0.0678,0.076,0.0749,0,0,0,0.0521,0.0479,0.0509,0.0513,0.0537,0.0546,0.0579,0.059,0.0583,0.0596,0.0598,0.0677,0.0678,0.0757,0.0745,0.082,0,0,0,0.0457,0.0517,0.0509,0.0534,0.0537,0.0565,0.0578,0.0578,0.0587,0.0597,0.0677,0.0679,0.0756,0.0743,0.0817,0.0702,0.0708,0,0,0.0504,0.0521,0.0531,0.0526,0.0554,0.0557,0.058,0.0601,0.0615,0.0664,0.0666,0.0761,0.0745,0.082,0.0779,0.0782,0,0,0,0.0524,0.0549,0.0546,0.0555,0.0565,0.0588,0.0601,0.0636,0.0714,0.0631,0.0765,0.075,0.0796,0.072,0.0723,0.0685,0.0685,0.0685,0.0685,0.061,0.0588,0.0589,0.0585,0.0595,0.0616,0.0657,0.0717,0.0732,0.0796,0.0825,0.0936,0.0857,0.0858,0.0855,0.0855,0.0855,0.0855,0.0856,0.0651,0.0627,0.0608,0.0613,0.0636,0.0674,0.0745,0.0792,0.0916,0.0899,0.0942,0.0816,0.0866,0.0863,0.0861,0.086,0.086,0.0859,0.0859,0.0661,0.064,0.0648,0.0628,0.067,0.0705,0.0764,0.0851,0.0967,0.1025,0.0968,0.0965,0.0978,0.1082,0.1083,0.1083,0.1083,0.1084,0.1084,0.065,0.0646,0.063,0.0626,0.0624,0.0667,0.0782,0.0858,0.0967,0.1015,0.1015,0.1012,0.1005,0.099,0.1089,0.1088,0.1087,0.1087,0.1086,0.0598,0.0616,0.0576,0.0561,0.0552,0.0621,0.0685,0.0844,0.0941,0.0992,0.1018,0.1018,0.0974,0.0968,0.0952,0.1035,0.1035,0.1035,0.1035,0.0566,0.0566,0.0523,0.0482,0.048,0.0585,0.0698,0.0739,0.085,0.082,0.0829,0.0745,0.0752,0.069,0.0691,0.0666,0.0676,0.0675,0.0674,0.0503,0.0508,0.0472,0.0464,0.0454,0.0607,0.075,0.0642,0.0536,0.066,0.0766,0.1011,0.0908,0.091,0.0828,0.0825,0.0791,0,0]},{"header":{"parameterUnit":"m.s-1","parameterCategory":2,"la1":30.2992,"la2":30.254,"lo1":-89.0895,"lo2":-89.0443,"dy":0.0025,"dx":0.0025,"nx":19,"ny":19,"refTime":"2026-03-19T09:00:00:Z","depth":"2","parameterNumber":3,"parameterNumberName":"V-component_of_CURRENTS"},"data":[0,0,0,0.0096,0.0097,0.0129,0.0129,0.0162,0.0162,0,0,0,0,0,0,0,0,0,0,0,0.0054,0.0054,0.0096,0.0097,0.0129,0.0129,0.0162,0.0162,0,0,0,0,0,0,0,0,0,0,0,0.0054,0.0054,0.0054,0.0097,0.0129,0.0129,0.0162,0.0137,0,0,0,0,0,0,0,0,0,0,0.0106,0.008,0.0054,0.0054,0.0097,0.0129,0.0129,0.0136,0.0139,0.0148,0,0.0136,0,0.0168,0.0165,0.0165,0,0,0,0.0087,0.0078,0.0086,0.0054,0.0098,0.0129,0.0111,0.0137,0.0141,0.0152,0.0137,0.014,0.0169,0.0165,0.0166,0.0256,0.0257,0,0,0.0085,0.0066,0.0083,0.0087,0.0084,0.0111,0.0113,0.0139,0.0134,0.0137,0.0141,0.0169,0.0166,0.0166,0.0256,0.0257,0,0,0,0.0087,0.0065,0.0072,0.0084,0.0101,0.0112,0.0114,0.0132,0.0133,0.0142,0.0169,0.0166,0.0167,0.0255,0.0256,0.0226,0,0,0,0.0085,0.0067,0.007,0.0061,0.01,0.0122,0.0106,0.013,0.0136,0.0169,0.0166,0.0167,0.0254,0.0256,0.0225,0.0236,0,0,0,0.0057,0.0066,0.0061,0.0059,0.0082,0.0122,0.0125,0.0132,0.0154,0.0165,0.0167,0.0254,0.0255,0.0224,0.0235,0.035,0,0,0,0.0048,0.0055,0.006,0.009,0.0081,0.0142,0.0125,0.0152,0.0161,0.0166,0.0254,0.0256,0.0224,0.0234,0.0347,0.0469,0.0491,0,0,0.0061,0.0055,0.0081,0.0088,0.0151,0.0138,0.0197,0.0185,0.0193,0.0241,0.0244,0.0225,0.0235,0.0349,0.056,0.0579,0,0,0,0.0091,0.0099,0.0122,0.0156,0.0195,0.0215,0.022,0.0225,0.0237,0.021,0.0266,0.0275,0.0348,0.0416,0.0432,0.0263,0.0263,0.0263,0.0263,0.0074,0.0116,0.0163,0.0208,0.0235,0.0267,0.0286,0.0296,0.0276,0.028,0.0279,0.0386,0.0457,0.047,0.03,0.03,0.03,0.03,0.03,0.0118,0.0144,0.0187,0.023,0.0251,0.027,0.0322,0.0305,0.0374,0.0314,0.0386,0.0415,0.0486,0.0298,0.0298,0.0299,0.0299,0.0299,0.0299,0.0108,0.0123,0.0147,0.0204,0.0221,0.0245,0.0323,0.0327,0.037,0.0413,0.0559,0.056,0.0396,0.0456,0.0457,0.0457,0.0458,0.0458,0.0458,0.0069,0.0109,0.0132,0.018,0.0203,0.0248,0.0312,0.0416,0.0555,0.0581,0.0583,0.0441,0.0436,0.041,0.0467,0.0465,0.0464,0.0463,0.0463,0.0063,0.0067,0.011,0.0146,0.0263,0.0409,0.0468,0.0696,0.0793,0.0923,0.0721,0.0712,0.076,0.0749,0.0734,0.0871,0.0871,0.0871,0.0871,0.0041,0.0058,0.0116,0.0209,0.0362,0.0498,0.0767,0.0874,0.0938,0.0885,0.0883,0.082,0.0806,0.0851,0.0837,0.0821,0.0982,0.0981,0.0981,0.0057,0.0063,0.0114,0.021,0.0408,0.0643,0.0862,0.0899,0.0874,0.0973,0.0772,0.0904,0.0805,0.0784,0.0847,0.0828,0.0799,0,0]}],[{"header":{"parameterUnit":"m.s-1","parameterCategory":2,"la1":30.2992,"la2":30.254,"lo1":-89.0895,"lo2":-89.0443,"dy":0.0025,"dx":0.0025,"nx":19,"ny":19,"refTime":"2026-03-19T09:00:00:Z","depth":"4","parameterNumber":2,"parameterNumberName":"U-component_of_CURRENTS"},"data":[0,0,0,-0.047,-0.047,-0.0455,-0.0455,-0.043,-0.043,0,0,0,0,0,0,0,0,0,0,0,-0.0489,-0.0489,-0.047,-0.047,-0.0455,-0.0455,-0.043,-0.043,0,0,0,0,0,0,0,0,0,0,0,-0.0489,-0.0489,-0.0489,-0.047,-0.0455,-0.0455,-0.043,-0.0442,0,0,0,0,0,0,0,0,0,0,-0.0457,-0.0486,-0.0489,-0.0489,-0.047,-0.0455,-0.0455,-0.0443,-0.0441,-0.0437,0,-0.0449,0,-0.0435,-0.0429,-0.0429,0,0,0,-0.0466,-0.0487,-0.0472,-0.0489,-0.047,-0.0455,-0.0461,-0.0442,-0.044,-0.0435,-0.0448,-0.0447,-0.0435,-0.0429,-0.0428,-0.0399,-0.0399,0,0,-0.0467,-0.0492,-0.0474,-0.0472,-0.0484,-0.0461,-0.046,-0.0441,-0.0454,-0.0448,-0.0446,-0.0434,-0.0428,-0.0428,-0.0399,-0.0399,0,0,0,-0.0472,-0.0493,-0.0479,-0.0473,-0.0469,-0.0461,-0.046,-0.0455,-0.0448,-0.0446,-0.0434,-0.0428,-0.0428,-0.04,-0.0399,-0.036,0,0,0,-0.0472,-0.0496,-0.0479,-0.0495,-0.047,-0.0464,-0.0474,-0.0449,-0.0446,-0.0434,-0.0428,-0.0428,-0.04,-0.0399,-0.0361,-0.0348,0,0,0,-0.0486,-0.0497,-0.0498,-0.0496,-0.0489,-0.0464,-0.0456,-0.0448,-0.0439,-0.0429,-0.0428,-0.04,-0.04,-0.0363,-0.0351,-0.0386,0,0,0,-0.0506,-0.0512,-0.05,-0.0511,-0.0489,-0.0487,-0.0456,-0.0461,-0.0459,-0.0428,-0.04,-0.0399,-0.0363,-0.0352,-0.0386,-0.033,0,0,0,-0.0516,-0.0515,-0.0519,-0.0507,-0.0503,-0.0487,-0.0482,-0.0468,-0.0445,-0.0405,-0.0405,-0.0361,-0.0351,-0.0386,-0.0307,0,0,0,0,-0.0523,-0.0524,-0.0526,-0.0524,-0.052,-0.0497,-0.0491,-0.0461,-0.0402,-0.044,-0.0364,-0.0359,-0.0383,-0.0351,-0.0397,-0.0397,-0.0398,-0.0398,-0.0398,-0.054,-0.0532,-0.0536,-0.0526,-0.053,-0.0508,-0.0478,-0.0431,-0.0419,-0.0376,-0.0329,-0.033,-0.0292,-0.033,-0.033,-0.0329,-0.0329,-0.0329,-0.0329,-0.0536,-0.0533,-0.0531,-0.0527,-0.0511,-0.0497,-0.0432,-0.0397,-0.0329,-0.03,-0.0326,-0.0312,-0.0325,-0.0326,-0.0327,-0.0327,-0.0327,-0.0328,-0.0328,-0.0538,-0.0534,-0.0532,-0.0519,-0.0486,-0.0454,-0.0393,-0.0332,-0.0296,-0.0282,-0.0285,-0.0323,-0.0327,-0.0302,-0.0302,-0.0302,-0.0302,-0.0302,-0.0302,-0.0537,-0.0534,-0.0522,-0.0499,-0.0473,-0.0413,-0.0349,-0.0335,-0.0317,-0.0243,-0.0278,-0.0322,-0.0323,-0.0327,-0.0303,-0.0303,-0.0303,-0.0303,-0.0303,-0.0529,-0.0525,-0.0512,-0.0491,-0.0423,-0.0372,-0.034,-0.0305,-0.0304,-0.0295,-0.0244,-0.0246,-0.0268,-0.0271,-0.0274,-0.0234,-0.0233,-0.0232,0,-0.0518,-0.0516,-0.0496,-0.0457,-0.0393,-0.0342,-0.0284,-0.0288,-0.0282,-0.0229,-0.0357,-0.0301,-0.0301,-0.0331,-0.0332,-0.0338,0,0,0,-0.0499,-0.0504,-0.0483,-0.0451,-0.037,-0.0279,-0.026,-0.0236,-0.0235,-0.0261,-0.0212,-0.0217,-0.0364,-0.0307,-0.0348,-0.0349,-0.0359,0,0]},{"header":{"parameterUnit":"m.s-1","parameterCategory":2,"la1":30.2992,"la2":30.254,"lo1":-89.0895,"lo2":-89.0443,"dy":0.0025,"dx":0.0025,"nx":19,"ny":19,"refTime":"2026-03-19T09:00:00:Z","depth":"4","parameterNumber":3,"parameterNumberName":"V-component_of_CURRENTS"},"data":[0,0,0,0.0431,0.0433,0.0494,0.0494,0.0554,0.0555,0,0,0,0,0,0,0,0,0,0,0,0.0408,0.0408,0.0431,0.0433,0.0494,0.0494,0.0554,0.0555,0,0,0,0,0,0,0,0,0,0,0,0.0407,0.0408,0.0409,0.0433,0.0494,0.0494,0.0554,0.0511,0,0,0,0,0,0,0,0,0,0,0.0453,0.0437,0.0408,0.0409,0.0434,0.0494,0.0494,0.0509,0.0513,0.0524,0,0.054,0,0.0554,0.0559,0.0559,0,0,0,0.0425,0.0433,0.0451,0.0409,0.0434,0.0494,0.0464,0.0511,0.0517,0.053,0.0541,0.0544,0.0555,0.056,0.056,0.0627,0.0627,0,0,0.0422,0.0416,0.0448,0.0455,0.0459,0.0462,0.0466,0.0515,0.0522,0.0541,0.0545,0.0556,0.056,0.0561,0.0626,0.0627,0,0,0,0.0417,0.0413,0.0431,0.0452,0.0468,0.0464,0.0469,0.052,0.0527,0.0546,0.0557,0.056,0.0561,0.0626,0.0626,0.0626,0,0,0,0.0415,0.0411,0.0429,0.0426,0.0467,0.0498,0.0473,0.0523,0.0529,0.0556,0.056,0.0562,0.0626,0.0626,0.0625,0.0641,0,0,0,0.0403,0.041,0.042,0.0425,0.0456,0.0497,0.0507,0.0525,0.0536,0.056,0.0562,0.0626,0.0626,0.0625,0.0639,0.0564,0,0,0,0.039,0.0418,0.042,0.0454,0.0455,0.0495,0.0506,0.0548,0.0571,0.0561,0.0626,0.0626,0.0625,0.0639,0.0565,0.0528,0,0,0,0.0418,0.0421,0.044,0.0444,0.0479,0.0486,0.0518,0.056,0.0581,0.0607,0.0608,0.0626,0.0639,0.0564,0.0563,0,0,0,0,0.0444,0.0456,0.0468,0.0488,0.0511,0.0513,0.0553,0.0565,0.0603,0.0599,0.0638,0.0647,0.0598,0.0581,0.0629,0.0629,0.0629,0.0629,0.0629,0.0457,0.0469,0.0488,0.0499,0.0518,0.0545,0.0548,0.0571,0.0611,0.0629,0.0654,0.0614,0.0599,0.0656,0.0656,0.0656,0.0656,0.0656,0.0656,0.0475,0.0472,0.0483,0.0513,0.0511,0.0553,0.0564,0.059,0.0602,0.0653,0.0604,0.0595,0.0656,0.0656,0.0656,0.0656,0.0656,0.0656,0.0656,0.046,0.0455,0.0485,0.0509,0.0551,0.0593,0.0575,0.0621,0.0616,0.0596,0.0548,0.0596,0.0581,0.0574,0.0574,0.0574,0.0574,0.0573,0.0573,0.042,0.0442,0.0467,0.0519,0.0559,0.0604,0.0621,0.0556,0.0555,0.0553,0.061,0.0585,0.0588,0.0576,0.0569,0.057,0.0571,0.0571,0.0571,0.0385,0.0403,0.0434,0.0469,0.0548,0.0549,0.0581,0.047,0.0394,0.0326,0.0482,0.0488,0.0471,0.0476,0.0459,0.0417,0.0417,0.0416,0,0.0343,0.036,0.0395,0.0442,0.0455,0.0499,0.0403,0.0331,0.0303,0.0367,0.0304,0.0482,0.0487,0.0469,0.0472,0.0452,0,0,0,0.0306,0.0313,0.0341,0.0403,0.0419,0.0377,0.0366,0.0325,0.0427,0.0252,0.0403,0.0406,0.0362,0.0558,0.0544,0.0547,0.0526,0,0]}]]